Location: Newark
(45.5000°N, 11.4167°E)
Time: 20:33:31
(UTC+00:00)

A-11 Canister half - Pass Details

Date: 24 August 2019
Orbit: 1514 x 1686 km, 47.2° (Epoch: 13 October)

Event Time Altitude Azimuth Distance (km) Brightness Sun altitude
Rises 15:13:15 0° 202° (SSW) 4,647 12.0 29.3°
Reaches altitude 10° 15:16:39 10° 193° (SSW) 3,678 11.4 28.7°
Maximum altitude 15:24:32 33° 134° (SE) 2,391 10.0 27.4°
Drops below altitude 10° 15:32:37 10° 76° (ENE) 3,782 10.6 26.0°
Sets 15:36:08 0° 67° (ENE) 4,796 11.0 25.4°
